• In United Kingdom
  • List of Countries
  • For 7 days
  • Water Temperature
  • Satellite Maps
  • Weather Map
  • Weather Widgets
  • user-avatar
    Login

    Hourly Weather Wiktoria

    Today, 29 May, Monday

    Time Temperature Precipitation Wind Pressure Humidity
    00:00 +6°C° 0 mm 1 mps 749 mmHg 93%
    01:00 +5°C° 0 mm 1 mps 750 mmHg 94%
    02:00 +5°C° 0 mm 1 mps 750 mmHg 95%
    03:00 +5°C° 0 mm 1 mps 751 mmHg 96%
    04:00 +4°C° 0 mm 1 mps 751 mmHg 97%
    05:00 +4°C° 0 mm 1 mps 751 mmHg 97%
    06:00 +4°C° 0 mm 1 mps 752 mmHg 98%
    07:00 +4°C° 0 mm 1 mps 752 mmHg 98%
    08:00 +5°C° 0 mm 1 mps 753 mmHg 93%
    09:00 +7°C° 0 mm 1 mps 753 mmHg 87%
    10:00 +9°C° 0 mm 1 mps 754 mmHg 82%
    11:00 +10°C° 0 mm 1 mps 754 mmHg 75%
    12:00 +12°C° 0 mm 1 mps 754 mmHg 67%
    13:00 +13°C° 0 mm 1 mps 754 mmHg 60%
    14:00 +13°C° 0 mm 1 mps 754 mmHg 61%
    15:00 +13°C° 0 mm 1 mps 754 mmHg 62%
    16:00 +13°C° 0 mm 1 mps 754 mmHg 62%
    17:00 +11°C° 0 mm 1 mps 754 mmHg 69%
    18:00 +10°C° 0 mm 1 mps 754 mmHg 77%
    19:00 +8°C° 0 mm 1 mps 755 mmHg 84%
    20:00 +7°C° 0 mm 1 mps 755 mmHg 87%
    21:00 +7°C° 0 mm 1 mps 755 mmHg 90%
    22:00 +6°C° 0 mm 1 mps 755 mmHg 93%
    23:00 +6°C° 0 mm 1 mps 755 mmHg 92%

    Tomorrow, 30 May, Tuesday

    Time Temperature Precipitation Wind Pressure Humidity
    00:00 +7°C° 0 mm 1 mps 755 mmHg 91%
    01:00 +7°C° 0 mm 1 mps 755 mmHg 90%
    02:00 +7°C° 0.2 mm 1 mps 755 mmHg 91%
    03:00 +8°C° 0.2 mm 1 mps 755 mmHg 91%
    04:00 +8°C° 0.2 mm 1 mps 754 mmHg 92%
    05:00 +8°C° 0.2 mm 1 mps 754 mmHg 93%
    06:00 +8°C° 0.2 mm 1 mps 754 mmHg 94%
    07:00 +8°C° 0.2 mm 1 mps 755 mmHg 95%
    08:00 +8°C° 0.2 mm 1 mps 755 mmHg 95%
    09:00 +9°C° 0.2 mm 1 mps 755 mmHg 95%
    10:00 +9°C° 0.2 mm 1 mps 755 mmHg 94%
    11:00 +10°C° 0.4 mm 1 mps 755 mmHg 94%
    12:00 +10°C° 0.4 mm 1 mps 755 mmHg 95%
    13:00 +10°C° 0.4 mm 1 mps 755 mmHg 95%
    14:00 +10°C° 0.1 mm 1 mps 755 mmHg 93%
    15:00 +11°C° 0.1 mm 1 mps 756 mmHg 91%
    16:00 +11°C° 0.1 mm 1 mps 756 mmHg 89%
    17:00 +9°C° 0 mm 1 mps 756 mmHg 91%
    18:00 +8°C° 0 mm 1 mps 757 mmHg 93%
    19:00 +7°C° 0 mm 1 mps 758 mmHg 95%
    20:00 +6°C° 0 mm 1 mps 758 mmHg 95%
    21:00 +6°C° 0 mm 1 mps 759 mmHg 95%
    22:00 +5°C° 0 mm 1 mps 759 mmHg 95%
    23:00 +5°C° 0 mm 1 mps 759 mmHg 95%

    Day after tomorrow, 31 May, Wednesday

    Time Temperature Precipitation Wind Pressure Humidity
    00:00 +5°C° 0 mm 1 mps 759 mmHg 95%
    01:00 +4°C° 0 mm 1 mps 760 mmHg 95%
    02:00 +4°C° 0 mm 1 mps 760 mmHg 95%
    03:00 +4°C° 0 mm 1 mps 760 mmHg 96%
    04:00 +4°C° 0 mm 1 mps 760 mmHg 96%
    05:00 +4°C° 0 mm 1 mps 760 mmHg 96%
    06:00 +4°C° 0 mm 1 mps 761 mmHg 97%
    07:00 +4°C° 0 mm 1 mps 761 mmHg 97%
    08:00 +5°C° 0 mm 1 mps 762 mmHg 92%
    09:00 +7°C° 0 mm 1 mps 762 mmHg 88%
    10:00 +9°C° 0 mm 1 mps 762 mmHg 83%
    11:00 +10°C° 0 mm 1 mps 762 mmHg 75%
    12:00 +10°C° 0 mm 2 mps 762 mmHg 67%
    13:00 +13°C° 0 mm 2 mps 762 mmHg 59%
    14:00 +12°C° 0 mm 2 mps 762 mmHg 61%
    15:00 +12°C° 0 mm 1 mps 762 mmHg 63%
    16:00 +12°C° 0 mm 1 mps 762 mmHg 65%
    17:00 +10°C° 0 mm 1 mps 762 mmHg 73%
    18:00 +9°C° 0 mm 1 mps 763 mmHg 81%
    19:00 +7°C° 0 mm 1 mps 763 mmHg 89%
    20:00 +7°C° 0 mm 1 mps 764 mmHg 90%
    21:00 +6°C° 0 mm 1 mps 764 mmHg 91%
    22:00 +6°C° 0 mm 1 mps 764 mmHg 92%
    23:00 +6°C° 0 mm 1 mps 764 mmHg 94%

    1 June, Thursday

    Time Temperature Precipitation Wind Pressure Humidity
    00:00 +5°C° 0 mm 1 mps 764 mmHg 96%
    01:00 +5°C° 0 mm 1 mps 764 mmHg 97%
    02:00 +5°C° 0 mm 1 mps 764 mmHg 98%
    03:00 +4°C° 0 mm 1 mps 764 mmHg 98%
    04:00 +4°C° 0 mm 1 mps 764 mmHg 98%
    05:00 +4°C° 0 mm 1 mps 765 mmHg 98%
    06:00 +4°C° 0 mm 1 mps 765 mmHg 99%
    07:00 +3°C° 0 mm 1 mps 765 mmHg 99%
    08:00 +5°C° 0 mm 1 mps 765 mmHg 90%
    09:00 +7°C° 0 mm 1 mps 766 mmHg 82%
    10:00 +9°C° 0 mm 1 mps 766 mmHg 74%
    11:00 +11°C° 0 mm 1 mps 765 mmHg 67%
    12:00 +12°C° 0 mm 1 mps 765 mmHg 60%
    13:00 +14°C° 0 mm 1 mps 764 mmHg 54%
    14:00 +14°C° 0 mm 1 mps 764 mmHg 56%
    15:00 +14°C° 0 mm 1 mps 764 mmHg 58%
    16:00 +13°C° 0 mm 1 mps 764 mmHg 61%
    17:00 +11°C° 0 mm 1 mps 764 mmHg 70%
    18:00 +9°C° 0 mm 1 mps 764 mmHg 80%
    19:00 +7°C° 0 mm 1 mps 765 mmHg 89%
    20:00 +7°C° 0 mm 1 mps 765 mmHg 91%
    21:00 +6°C° 0 mm 1 mps 765 mmHg 94%
    22:00 +5°C° 0 mm 1 mps 765 mmHg 96%
    23:00 +5°C° 0 mm 1 mps 765 mmHg 96%

    2 June, Friday

    Time Temperature Precipitation Wind Pressure Humidity
    00:00 +5°C° 0 mm 1 mps 765 mmHg 97%
    01:00 +4°C° 0 mm 1 mps 765 mmHg 97%
    02:00 +4°C° 0 mm 1 mps 765 mmHg 97%
    03:00 +3°C° 0 mm 1 mps 765 mmHg 98%
    04:00 +3°C° 0 mm 1 mps 765 mmHg 98%
    05:00 +3°C° 0 mm 1 mps 765 mmHg 98%
    06:00 +2°C° 0 mm 1 mps 765 mmHg 98%
    07:00 +2°C° 0 mm 1 mps 765 mmHg 98%
    08:00 +3°C° 0 mm 0 mps 765 mmHg 87%
    09:00 +6°C° 0 mm 0 mps 766 mmHg 76%
    10:00 +8°C° 0 mm 0 mps 766 mmHg 64%
    11:00 +10°C° 0 mm 0 mps 765 mmHg 57%
    12:00 +12°C° 0 mm 0 mps 765 mmHg 50%
    13:00 +14°C° 0 mm 0 mps 764 mmHg 42%
    14:00 +13°C° 0 mm 0 mps 764 mmHg 46%
    15:00 +13°C° 0 mm 0 mps 764 mmHg 50%
    16:00 +12°C° 0 mm 0 mps 763 mmHg 55%
    17:00 +11°C° 0 mm 1 mps 764 mmHg 62%
    18:00 +9°C° 0 mm 1 mps 764 mmHg 69%
    19:00 +6°C° 0 mm 1 mps 764 mmHg 76%
    20:00 +6°C° 0 mm 1 mps 764 mmHg 79%
    21:00 +6°C° 0 mm 1 mps 764 mmHg 82%
    22:00 +5°C° 0 mm 1 mps 764 mmHg 85%
    23:00 +5°C° 0 mm 1 mps 764 mmHg 87%

    3 June, Saturday

    Time Temperature Precipitation Wind Pressure Humidity
    00:00 +4°C° 0 mm 1 mps 764 mmHg 90%
    01:00 +4°C° 0 mm 1 mps 764 mmHg 93%
    02:00 +4°C° 0 mm 1 mps 764 mmHg 94%
    03:00 +3°C° 0 mm 1 mps 763 mmHg 95%
    04:00 +3°C° 0 mm 1 mps 763 mmHg 96%
    05:00 +2°C° 0 mm 1 mps 763 mmHg 96%
    06:00 +2°C° 0 mm 1 mps 763 mmHg 97%
    07:00 +2°C° 0 mm 1 mps 764 mmHg 98%
    08:00 +3°C° 0 mm 0 mps 764 mmHg 85%
    09:00 +6°C° 0 mm 0 mps 764 mmHg 73%
    10:00 +9°C° 0 mm 0 mps 764 mmHg 60%
    11:00 +10°C° 0 mm 0 mps 763 mmHg 54%
    12:00 +12°C° 0 mm 0 mps 763 mmHg 47%
    13:00 +14°C° 0 mm 0 mps 762 mmHg 40%
    14:00 +13°C° 0 mm 0 mps 762 mmHg 46%
    15:00 +13°C° 0 mm 0 mps 761 mmHg 52%
    16:00 +12°C° 0 mm 0 mps 761 mmHg 57%
    17:00 +8°C° 0 mm 0 mps 761 mmHg 71%
    18:00 +5°C° 0 mm 0 mps 761 mmHg 84%
    19:00 +1°C° 0 mm 0 mps 761 mmHg 97%
    20:00 0°C° 0 mm 0 mps 761 mmHg 98%
    21:00 0°C° 0 mm 0 mps 761 mmHg 98%
    22:00 0°C° 0 mm 0 mps 761 mmHg 99%
    23:00 -1°C° 0 mm 0 mps 760 mmHg 99%
    Show more